Regional Weather Roundup
Issued by NWS

Home | Current Version | Previous Version | Graphics & Text | Print | Product List | Glossary On
Versions: 1 2 3 4 5 6 7 8 9 10 11 12 13 14 15 16 17 18 19 20 21 22 23 24 25 26 27 28 29 30 31 32 33 34 35 36 37 38 39 40 41 42 43 44 45 46 47 48 49 50
000
ASUS43 KBIS 060110
RWRND

NORTH DAKOTA REGIONAL WEATHER ROUNDUP
NATIONAL WEATHER SERVICE BISMARCK ND
700 PM CST THU MAR 05 2015

NOTE: "FAIR" INDICATES FEW OR NO CLOUDS BELOW 12,000 FEET WITH NO
SIGNIFICANT WEATHER AND/OR OBSTRUCTIONS TO VISIBILITY.


NDZ001>003-009>011-017-060200-
NORTHWEST NORTH DAKOTA

CITY           SKY/WX    TMP DP  RH WIND       PRES   REMARKS
WILLISTON      MOCLDY    34  21  59 SW8       30.01F
MINOT          CLEAR     26  13  57 SW10      29.98F WCI  16
MINOT AFB      CLEAR     22  16  77 SW9       29.97F WCI  12
$$

NDZ018>021-031>035-040>046-060200-
SOUTHWEST NORTH DAKOTA

CITY           SKY/WX    TMP DP  RH WIND       PRES   REMARKS
BISMARCK       CLEAR     32  12  43 W7        30.07R
DICKINSON      PTCLDY    30  11  45 NW9       30.03R
GARRISON         N/A     23  14  68 W7        30.02F WCI  15
HETTINGER ARPT CLEAR     29   9  43 NW7       30.08R
$$

NDZ004>008-012>016-024-026-027-054-060200-
NORTHEAST NORTH DAKOTA

CITY           SKY/WX    TMP DP  RH WIND       PRES   REMARKS
GRAND FORKS    PTCLDY    19  10  68 S13       30.09F WCI   6
GRND FRKS AFB  CLEAR     23  10  58 S15       30.07F WCI  10
DEVILS LAKE    CLEAR     21  12  68 SW8       30.02S WCI  12
$$

NDZ022-023-025-028>030-036>039-047>053-060200-
SOUTHEAST NORTH DAKOTA

CITY           SKY/WX    TMP DP  RH WIND       PRES   REMARKS
FARGO          CLEAR     20   8  60 S15       30.18F WCI   6
JAMESTOWN      CLEAR     20  12  71 S13       30.06F WCI   7
$$



USA.gov is the U.S. government's official web portal to all federal, state and local government web resources and services.